JL1LCW-13 Weather Reports


time (UTC)temp
C
wind
direction
speed
KPH
gust
KPH
rain 1hr
cm
rain 24hr
cm
rain mn
cm
humidity
%
barometer
mb
20260502205159 15 22 0.0 6.4 0.00 0.00 0.00 99 1013.0
20260502203658 15 45 0.0 6.4 0.00 0.00 0.00 99 1013.0
20260502195157 15 22 0.0 8.0 0.00 0.00 0.00 99 1013.0
20260502193657 15 45 3.2 8.0 0.00 0.00 0.00 99 1013.0
20260502185158 15 45 3.2 6.4 0.00 0.00 0.00 99 1013.0
20260502183657 15 45 3.2 6.4 0.00 0.00 0.00 99 1013.0
20260502163657 12 45 0.0 0.0 0.00 0.00 0.00 99 1012.0
20260502123659 17 45 0.0 0.0 0.00 0.00 0.00 73 1011.0
20260502115158 17 90 0.0 3.2 0.00 0.00 0.00 69 1010.0
20260502113657 17 67 0.0 3.2 0.00 0.00 0.00 72 1010.0
20260502105158 18 45 0.0 8.0 0.00 0.00 0.00 59 1009.0
20260502103657 18 157 0.0 8.0 0.00 0.00 0.00 54 1009.0
20260502065159 27 270 9.7 22.5 0.00 0.00 0.00 31 1006.0
20260502063658 27 45 6.4 22.5 0.00 0.00 0.00 32 1006.0
20260502055158 27 292 9.7 25.7 0.00 0.00 0.00 27 1005.0
20260502053658 27 270 6.4 25.7 0.00 0.00 0.00 28 1005.0
20260502045159 27 270 16.1 22.5 0.00 0.00 0.00 28 1005.0
20260502043658 27 270 9.7 22.5 0.00 0.03 0.00 30 1005.0
20260502035159 27 315 22.5 29.0 0.00 0.08 0.00 30 1004.0
20260502033658 26 112 14.5 29.0 0.00 0.15 0.00 30 1004.0
20260502025157 26 292 16.1 22.5 0.00 0.46 0.00 38 1003.0
20260502023657 26 270 9.7 20.9 0.00 0.48 0.00 45 1003.0
20260502015158 25 315 9.7 22.5 0.00 0.64 0.00 54 1003.0
20260502013658 23 270 9.7 22.5 0.00 0.71 0.00 52 1003.0
20260502005158 22 315 9.7 22.5 0.00 1.42 0.00 48 1003.0
20260502003658 22 270 16.1 22.5 0.00 1.63 0.00 53 1003.0
20260501235158 21 337 16.1 19.3 0.00 2.24 0.00 51 1002.0
20260501233658 20 315 9.7 16.1 0.00 2.34 0.00 54 1002.0
20260501225159 17 225 3.2 9.7 0.00 2.72 0.00 71 1001.0
20260501223658 17 270 8.0 9.7 0.00 2.79 0.00 75 1001.0
20260501215157 16 225 0.0 6.4 0.00 3.02 0.00 89 1000.0
20260501213657 15 270 3.2 8.0 0.00 3.05 0.00 90 1000.0